Wind_Speed
34 34 34 34 33 33 33 33 32 31 31 30 30 30 29 28 28 27 27 26 26 26 25 25 24 24 23 22 21 21 20 20 19 19 18 18 18 18 17 17 16 16 16
36 36 36 36 35 35 35 35 35 34 34 33 33 33 32 31 30 30 29 29 29 28 28 28 27 27 26 25 24 23 23 22 21 21 21 20 20 20 20 20 19 19 18
38 38 38 38 37 37 37 37 37 37 37 36 35 35 35 34 33 32 32 31 31 30 30 30 30 29 29 28 27 27 26 25 24 24 24 23 23 23 23 22 22 21 21
40 40 40 40 39 39 39 39 39 39 39 39 38 38 37 37 36 35 34 34 33 32 32 32 32 32 31 31 30 30 29 28 28 27 27 26 26 25 25 25 24 24 23
42 42 42 42 41 41 41 41 41 41 41 41 41 40 39 39 38 38 37 36 35 35 35 34 34 34 34 33 33 32 32 31 31 30 30 29 29 28 28 27 27 26 25
44 44 44 44 44 44 43 44 43 43 43 43 43 42 41 41 40 40 40 39 39 38 37 37 37 36 36 36 36 35 35 34 34 33 33 32 32 31 30 29 28 28 28
46 46 45 45 45 46 45 46 46 45 45 45 45 45 44 43 42 42 42 42 41 41 40 40 40 39 39 39 38 38 38 37 36 36 35 34 34 33 33 32 31 31 30
48 47 48 47 47 47 47 47 47 47 47 47 47 47 47 46 45 45 45 44 44 44 43 43 43 43 42 42 41 41 40 40 39 38 37 36 36 35 35 35 35 34 32
49 49 48 48 48 49 49 49 49 49 49 49 49 49 49 49 48 47 47 47 46 46 46 46 46 45 45 45 45 44 43 43 42 42 41 40 39 38 37 37 37 36 35
51 50 50 50 50 50 50 50 51 51 51 51 51 51 51 51 51 50 49 49 49 49 49 49 49 48 48 48 47 47 47 46 45 45 44 44 42 41 40 40 40 39 38
51 51 51 51 51 51 51 51 52 52 52 53 53 53 53 52 53 53 51 51 51 51 50 50 51 51 51 51 50 50 50 49 48 48 47 47 46 44 43 43 42 42 41
52 52 51 51 51 52 51 52 53 53 53 54 54 54 54 53 54 54 53 53 52 52 52 52 52 52 53 52 52 52 52 52 51 51 50 49 49 48 47 45 45 44 44
53 53 52 52 51 52 52 52 53 53 54 54 54 55 54 54 54 54 54 54 54 53 53 53 53 53 53 53 53 53 53 53 53 53 52 52 51 50 50 49 47 46 46
52 52 52 52 51 52 52 52 53 54 54 54 55 55 55 55 55 55 55 56 55 54 54 53 53 53 53 54 54 54 54 54 55 54 54 54 54 53 52 52 50 49 49
51 51 51 51 51 51 52 52 52 53 54 55 56 56 56 56 56 55 56 56 57 57 55 54 55 54 55 55 56 56 56 56 56 56 56 55 55 54 54 54 53 52 51
50 50 51 50 50 51 51 52 52 52 53 55 56 56 56 56 57 56 56 56 57 58 57 56 56 56 56 56 57 58 57 57 57 57 57 56 56 55 55 55 55 54 52
49 51 51 50 50 51 51 51 51 52 54 54 56 57 57 58 58 57 57 57 58 58 58 57 58 58 58 58 58 59 59 59 58 57 58 57 57 56 56 56 56 56 55
49 50 51 51 51 52 53 52 52 53 53 54 56 57 58 59 59 58 58 58 59 59 60 59 59 59 59 59 59 59 59 59 59 58 57 57 58 57 57 57 57 57 57
48 49 49 50 49 50 52 52 53 53 54 54 55 56 57 57 59 60 60 60 60 60 61 61 60 60 61 60 60 60 60 60 59 59 58 58 58 58 59 59 59 59 59
48 49 50 50 51 51 51 52 53 54 54 55 55 55 56 57 59 60 61 61 61 61 61 61 60 60 60 60 60 61 60 60 59 59 59 59 59 59 59 60 60 60 60
49 49 50 50 52 53 53 53 53 53 54 55 56 57 57 58 59 60 61 61 61 61 61 60 60 60 59 60 60 60 60 60 59 59 59 59 59 59 59 60 61 60 60
48 50 51 51 52 53 54 55 55 55 55 56 57 58 59 60 60 60 60 60 60 60 61 60 59 59 59 59 59 60 60 60 60 59 60 59 60 60 59 60 60 60 60
48 50 51 51 52 53 54 55 55 56 56 57 58 58 59 60 60 60 60 60 59 59 60 60 60 59 59 58 59 60 60 61 59 60 61 60 60 60 59 59 59 59 60
48 48 50 51 52 53 54 55 56 56 57 57 58 58 58 58 58 59 59 59 59 59 59 59 59 59 59 60 60 59 60 60 60 59 60 59 59 60 60 59 59 59 60
47 48 49 49 50 51 53 54 55 56 56 56 56 56 56 57 57 57 58 58 58 58 58 58 58 58 59 59 59 59 58 59 59 59 60 59 59 59 59 59 59 58 58
45 46 47 49 50 51 52 53 54 54 54 54 55 55 55 55 56 57 57 57 58 58 58 57 57 58 59 59 59 59 58 58 58 58 58 59 59 59 58 57 57 58 58
Wind_Direction
257 257 259 259 258 257 256 254 254 254 254 254 255 255 255 255 255 255 255 255 255 255 256 257 257 257 257 258 261 261 262 262 261 261 262 263 264 263 263 264 265 267 268
259 259 260 260 259 258 257 256 254 254 254 254 255 255 256 256 256 256 256 256 256 256 256 257 257 257 258 258 259 260 261 262 261 261 261 261 261 261 262 262 264 266 267
260 260 261 261 260 258 258 257 255 254 254 254 255 255 256 256 256 257 257 256 256 256 257 257 257 257 258 258 259 259 260 260 261 261 261 261 261 262 261 262 263 264 266
259 260 260 260 260 259 257 257 255 255 255 255 255 256 256 256 256 257 257 256 256 257 257 257 257 257 257 258 259 259 259 260 260 260 260 261 261 262 262 263 263 264 264
259 259 260 260 259 259 257 256 255 255 255 255 255 256 256 256 256 257 257 257 256 257 257 257 257 257 257 257 258 259 259 260 261 260 260 261 261 262 263 264 265 263 264
260 259 259 260 259 258 258 257 256 255 254 254 254 255 256 257 257 257 257 257 256 256 257 258 258 257 257 258 258 258 259 260 261 261 261 261 261 261 263 264 264 263 263
260 260 260 260 259 259 258 258 257 255 255 254 254 254 255 256 257 257 258 258 257 257 257 257 258 258 258 258 258 259 259 259 260 260 260 260 260 261 261 262 263 262 261
259 260 260 260 260 259 258 258 257 256 255 254 254 254 255 256 257 257 258 258 259 258 258 258 258 258 258 258 258 258 259 259 259 260 260 260 260 260 260 261 262 261 261
259 260 260 260 260 259 258 258 257 256 255 255 254 254 255 255 256 257 257 258 259 259 259 259 259 258 258 258 258 258 259 259 259 259 259 259 260 260 260 260 260 260 260
260 260 261 260 260 259 259 258 257 256 256 255 255 255 255 256 256 256 257 257 258 259 260 260 259 259 259 258 259 258 258 259 259 259 259 259 260 260 260 260 260 260 260
260 260 261 260 260 259 258 258 257 256 256 256 256 256 256 256 256 257 257 257 258 259 260 260 260 260 259 259 259 258 258 258 258 259 258 258 259 259 260 260 260 260 259
260 260 261 259 259 258 258 258 258 257 256 256 256 256 256 256 257 257 257 258 258 259 259 260 260 260 260 260 260 259 259 258 258 258 258 258 258 259 259 259 259 259 259
260 260 260 258 258 258 258 259 258 257 257 257 257 256 256 256 257 258 258 258 258 259 259 259 260 260 259 260 260 260 260 259 259 258 258 259 259 259 259 259 259 259 259
259 260 260 259 258 259 259 259 258 258 257 257 257 257 257 257 257 257 258 259 258 258 259 259 259 259 259 259 260 260 260 259 259 259 259 259 258 258 258 258 258 259 259
260 260 260 259 259 259 259 259 258 259 258 258 258 258 257 257 257 258 258 259 259 258 258 258 259 259 259 259 259 259 259 259 258 258 258 258 258 258 258 258 258 259 258
260 260 260 259 259 259 259 259 259 259 259 259 259 259 258 257 257 257 259 259 259 259 258 257 258 259 259 259 259 258 259 259 258 257 257 257 257 258 258 257 257 258 258
262 261 261 261 260 259 260 260 260 261 261 260 260 259 260 259 258 258 259 259 259 259 259 258 259 259 259 258 258 258 257 257 258 258 257 257 257 257 257 257 257 257 257
264 263 261 261 261 261 260 261 261 262 262 262 261 260 260 260 259 259 259 259 259 260 260 259 259 258 258 258 258 258 258 257 258 258 258 258 257 256 256 256 256 256 256
265 263 262 262 262 262 261 261 262 262 262 262 262 261 260 260 260 260 260 260 260 260 260 259 259 258 258 258 258 258 258 257 258 258 258 258 257 257 256 257 257 257 257
266 263 262 262 262 263 263 263 263 263 263 263 263 262 262 262 261 260 260 260 260 260 259 259 259 258 259 259 258 258 257 257 258 259 259 258 258 257 257 258 258 258 258
267 265 264 263 263 263 263 264 263 263 263 263 264 263 263 263 262 261 260 260 260 260 260 259 259 259 259 259 258 258 257 257 257 258 258 258 258 258 258 258 259 258 258
267 266 266 265 264 263 263 264 264 263 264 265 265 265 265 264 263 261 260 260 259 260 259 259 259 259 259 258 258 258 258 258 258 258 258 259 259 259 259 258 259 259 258
268 268 266 265 264 264 264 265 265 265 265 265 266 266 265 264 264 262 260 259 259 260 259 259 259 258 258 258 259 259 259 258 258 257 258 259 260 261 260 260 260 259 258
271 270 268 267 266 265 265 266 266 266 266 267 267 266 266 264 264 263 261 260 260 260 260 259 259 259 259 259 260 260 260 259 258 258 259 260 260 261 261 261 260 259 258
273 272 271 269 268 267 267 267 267 268 268 267 267 266 265 264 263 263 261 260 260 260 260 260 259 258 258 259 260 260 261 260 259 259 259 260 260 261 261 261 260 259 257
275 274 273 272 271 270 269 269 268 268 268 268 267 267 266 265 264 263 262 261 260 260 259 259 259 259 259 259 259 260 260 261 260 259 259 260 260 260 260 260 260 259 257
Height
5780 5781 5783 5784 5786 5787 5789 5790 5792 5793 5795 5797 5799 5800 5802 5804 5805 5807 5808 5809 5810 5812 5813 5814 5816 5817 5818 5819 5820 5821 5822 5822 5823 5824 5825 5826 5826 5827 5827 5828 5829 5829 5830
5771 5773 5774 5775 5777 5778 5780 5782 5784 5785 5787 5789 5791 5793 5795 5796 5798 5800 5801 5803 5804 5805 5807 5808 5809 5811 5812 5813 5814 5815 5816 5817 5818 5819 5820 5821 5821 5822 5823 5824 5824 5825 5826
5762 5763 5765 5766 5767 5768 5770 5772 5774 5776 5778 5780 5783 5784 5786 5788 5790 5792 5794 5795 5797 5798 5799 5801 5802 5804 5805 5807 5808 5809 5810 5811 5813 5813 5814 5815 5816 5817 5818 5819 5819 5820 5821
5751 5753 5754 5756 5757 5758 5760 5762 5764 5766 5768 5771 5773 5775 5777 5779 5781 5783 5785 5787 5789 5790 5792 5793 5795 5796 5798 5799 5801 5802 5804 5805 5806 5807 5808 5809 5810 5811 5812 5813 5814 5815 5816
5740 5742 5743 5744 5746 5747 5749 5751 5753 5756 5758 5760 5763 5765 5768 5770 5772 5774 5776 5778 5780 5782 5783 5785 5786 5788 5790 5791 5793 5794 5796 5797 5799 5800 5801 5802 5803 5805 5806 5807 5808 5809 5809
5728 5730 5731 5733 5734 5736 5737 5739 5742 5744 5747 5749 5752 5755 5757 5760 5762 5764 5766 5768 5770 5772 5774 5776 5777 5779 5781 5782 5784 5786 5787 5789 5790 5792 5793 5795 5796 5797 5799 5800 5801 5802 5803
5716 5717 5719 5720 5722 5723 5725 5727 5729 5732 5735 5737 5740 5743 5746 5749 5751 5753 5755 5757 5760 5762 5764 5766 5767 5769 5771 5773 5774 5776 5778 5780 5781 5783 5785 5786 5788 5789 5791 5792 5793 5794 5795
5703 5704 5706 5707 5709 5710 5712 5714 5716 5719 5722 5724 5728 5731 5735 5738 5739 5742 5744 5746 5748 5750 5753 5755 5757 5758 5760 5762 5764 5766 5768 5770 5771 5773 5775 5777 5779 5780 5782 5783 5784 5786 5787
5690 5691 5692 5694 5696 5697 5699 5701 5703 5706 5709 5711 5714 5717 5721 5725 5727 5730 5732 5734 5736 5738 5740 5742 5744 5746 5749 5751 5753 5755 5757 5759 5760 5763 5764 5767 5769 5770 5772 5774 5775 5777 5778
5676 5677 5679 5680 5682 5683 5685 5687 5689 5692 5695 5697 5700 5703 5706 5710 5713 5717 5720 5721 5723 5725 5727 5729 5731 5733 5736 5738 5740 5742 5744 5746 5749 5751 5753 5755 5757 5759 5761 5763 5765 5767 5769
5662 5664 5665 5666 5668 5669 5671 5673 5675 5677 5680 5683 5686 5689 5692 5695 5698 5701 5706 5708 5710 5712 5714 5716 5717 5719 5721 5724 5726 5729 5731 5733 5736 5738 5740 5742 5745 5747 5750 5752 5754 5756 5758
5648 5649 5651 5652 5654 5655 5657 5659 5660 5663 5666 5669 5672 5674 5677 5680 5683 5686 5690 5693 5695 5698 5699 5701 5703 5705 5707 5709 5711 5714 5716 5719 5721 5724 5726 5729 5732 5734 5737 5739 5741 5743 5745
5634 5636 5636 5638 5639 5641 5643 5644 5646 5649 5652 5654 5657 5660 5663 5666 5668 5671 5674 5677 5680 5683 5685 5687 5688 5690 5691 5694 5696 5698 5701 5703 5706 5709 5712 5715 5717 5720 5723 5725 5728 5730 5733
5620 5621 5622 5624 5625 5627 5628 5630 5632 5635 5637 5640 5642 5645 5648 5651 5653 5655 5658 5661 5664 5667 5669 5672 5673 5675 5676 5678 5681 5683 5685 5688 5690 5693 5696 5699 5702 5705 5708 5711 5713 5716 5719
5606 5608 5609 5610 5611 5613 5614 5616 5618 5621 5623 5625 5627 5630 5632 5635 5638 5640 5642 5644 5647 5650 5655 5657 5658 5660 5661 5663 5665 5667 5669 5672 5674 5677 5680 5683 5686 5689 5692 5695 5698 5701 5704
5593 5595 5596 5597 5598 5599 5601 5602 5605 5607 5609 5610 5612 5615 5617 5620 5622 5624 5626 5628 5630 5633 5637 5642 5642 5643 5645 5647 5648 5651 5653 5655 5658 5661 5664 5667 5670 5673 5676 5679 5682 5686 5689
5581 5582 5583 5584 5585 5586 5587 5589 5591 5592 5594 5596 5597 5599 5602 5603 5606 5608 5610 5612 5614 5616 5619 5624 5625 5627 5628 5630 5632 5634 5637 5639 5642 5644 5647 5650 5654 5657 5660 5663 5666 5669 5672
5568 5569 5570 5571 5572 5573 5574 5575 5577 5578 5579 5581 5582 5584 5586 5587 5589 5591 5593 5595 5597 5599 5601 5605 5609 5610 5611 5613 5615 5617 5620 5622 5625 5628 5631 5634 5637 5640 5643 5646 5649 5653 5656
5556 5556 5557 5558 5559 5559 5560 5561 5562 5563 5564 5566 5567 5568 5570 5571 5573 5575 5577 5579 5580 5582 5583 5586 5590 5592 5594 5596 5598 5600 5603 5606 5609 5612 5614 5617 5620 5623 5626 5629 5632 5636 5639
5543 5543 5544 5544 5545 5545 5546 5546 5547 5548 5549 5551 5552 5552 5554 5555 5556 5558 5559 5561 5562 5564 5566 5568 5572 5575 5577 5579 5581 5583 5586 5589 5592 5595 5597 5600 5604 5607 5610 5613 5616 5619 5622
5529 5530 5530 5531 5531 5531 5532 5532 5532 5533 5534 5535 5536 5536 5537 5538 5539 5540 5542 5543 5544 5546 5548 5551 5554 5557 5560 5561 5564 5566 5569 5573 5576 5578 5581 5585 5587 5590 5593 5595 5598 5601 5604
5516 5516 5516 5516 5516 5517 5517 5517 5517 5517 5518 5519 5519 5520 5520 5521 5522 5523 5524 5525 5527 5528 5531 5533 5536 5539 5543 5544 5546 5549 5552 5556 5561 5564 5564 5568 5570 5573 5576 5578 5581 5584 5587
5502 5502 5501 5501 5502 5501 5501 5501 5501 5501 5502 5502 5503 5503 5503 5504 5504 5505 5506 5507 5509 5511 5514 5516 5519 5522 5525 5527 5529 5532 5534 5538 5542 5545 5547 5551 5553 5556 5559 5561 5564 5566 5569
5488 5487 5486 5486 5486 5486 5485 5485 5484 5485 5485 5486 5486 5486 5486 5486 5486 5487 5489 5491 5492 5494 5497 5499 5503 5506 5507 5509 5511 5514 5517 5520 5525 5528 5529 5533 5536 5539 5542 5544 5546 5549 5552
5474 5472 5472 5471 5471 5471 5469 5469 5468 5468 5468 5469 5469 5468 5468 5469 5470 5470 5472 5474 5476 5478 5479 5482 5485 5487 5489 5491 5493 5496 5499 5502 5507 5511 5513 5515 5519 5521 5524 5527 5529 5531 5534
5459 5458 5457 5456 5456 5455 5454 5453 5452 5452 5452 5452 5452 5452 5452 5452 5453 5453 5454 5456 5459 5462 5463 5465 5467 5470 5472 5474 5477 5479 5482 5485 5489 5493 5496 5497 5500 5502 5506 5511 5513 5515 5517